Regional Weather Roundup
Issued by NWS

Home | Current Version | Previous Version | Text Only | Print | Product List | Glossary On
Versions: 1 2 3 4 5 6 7 8 9 10 11 12 13 14 15 16 17 18 19 20 21 22 23 24 25 26 27
000
ASUS46 KSEW 251010
RWRWA

WASHINGTON REGIONAL WEATHER ROUNDUP
NATIONAL WEATHER SERVICE SEATTLE WA
300 AM PDT SUN SEP 25 2016

NOTE:"FAIR" INDICATES FEW OR NO CLOUDS BELOW 12,000 FEET WITH NO
SIGNIFICANT WEATHER AND/OR OBSTRUCTIONS TO VISIBILITY.

WAZ505-507>509-251100-
SEATTLE, TACOMA, EVERETT, AND VICINITY

CITY           SKY/WX    TMP DP  RH WIND       PRES   REMARKS
EVERETT        CLOUDY    58  51  78 VRB3      30.38F
BOEING FIELD   CLOUDY    61  50  67 CALM      30.37F
RENTON         CLOUDY    60  53  77 CALM      30.38S
SEATAC AIRPORT CLOUDY    60  49  66 CALM      30.39F
JBLM-MCCHORD   CLOUDY    58  53  84 S1        30.38S
PUYALLUP       CLOUDY    57  54  88 CALM      30.39S
BREMERTON      CLOUDY    55  52  88 CALM      30.42S
JBLM-FT LEWIS  CLOUDY    58  53  84 SE2       30.37F
TACOMA NARROWS CLOUDY    58  50  75 CALM      30.39F
$$

WAZ001-503-506-510-514-515-251100-
NORTH INTERIOR

CITY           SKY/WX    TMP DP  RH WIND       PRES   REMARKS
BELLINGHAM     CLOUDY    56  51  84 N3        30.38F
FRIDAY HARBOR  CLOUDY    55  52  89 CALM      30.39F
EASTSOUND      CLOUDY    57  50  77 CALM      30.36F
PORT ANGELES   CLOUDY    55  50  83 CALM      30.38S
EDIZ HOOK      CLOUDY    52  50  93 CALM      30.38F
PORT TOWNSEND  CLOUDY    55  54  94 CALM      30.38F
NAS WHIDBEY    CLOUDY    55  50  83 CALM      30.42F
ARLINGTON      CLOUDY    57  46  67 NE3       30.40F
BURLINGTON     CLOUDY    57  52  82 NE7G13    30.39S
$$

WAZ020-022-039-040-504-511-512-251100-
SOUTHWEST INTERIOR

CITY           SKY/WX    TMP DP  RH WIND       PRES   REMARKS
SHELTON        CLOUDY    57  52  83 NW5       30.36F
OLYMPIA        CLOUDY    55  52  89 CALM      30.38S
CHEHALIS       CLOUDY    54  54 100 CALM      30.38F
KELSO          PTCLDY    55  52  89 CALM      30.39S
VANCOUVER      CLEAR     53  50  89 CALM      30.38S
SCAPPOOSE, OR  CLOUDY    53  49  86 CALM      30.37F
PORTLAND, OR   PTCLDY    54  50  86 CALM      30.38F
$$

WAZ021-516-517-251100-
WASHINGTON COAST

CITY           SKY/WX    TMP DP  RH WIND       PRES   REMARKS
FORKS          CLOUDY    56  52  86 NE3       30.36R
HOQUIAM        CLOUDY    59  55  87 NE5       30.37S
ASTORIA, OR    CLOUDY    60  54  80 CALM      30.35F
$$

WAZ019-023-024-040-518-519-251100-
CASCADE MOUNTAINS AND COLUMBIA GORGE

CITY           SKY/WX    TMP DP  RH WIND       PRES   REMARKS
STAMPEDE PASS  CLOUDY    49  38  65 CALM      30.43S
TROUTDALE, OR  CLEAR     52  48  86 CALM      30.38F
THE DALLES, OR CLEAR     53  41  63 E6        30.37R
$$

WAZ026-027-041>044-520-521-251100-
EAST SLOPES

CITY           SKY/WX    TMP DP  RH WIND       PRES   REMARKS
OMAK           CLOUDY    60  37  42 CALM      30.34R
WENATCHEE      CLOUDY    62  39  42 NW13      30.34S
ELLENSBURG     CLOUDY    61  40  45 W12       30.36S
YAKIMA         CLEAR     49  39  68 CALM      30.38R
$$

WAZ028-034-035-251100-
COLUMBIA BASIN

CITY           SKY/WX    TMP DP  RH WIND       PRES   REMARKS
EPHRATA        CLOUDY    57  42  57 N5        30.35R
MOSES LAKE     CLOUDY    59  40  49 S7        30.35F
PASCO          CLOUDY    51  43  74 CALM      30.37S
HERMISTON, OR  CLEAR     46  39  76 SE5       30.37R
$$

WAZ036>038-251100-
NORTHEAST WASHINGTON

CITY           SKY/WX    TMP DP  RH WIND       PRES   REMARKS
SPOKANE GEIGER CLOUDY    53  35  50 S8        30.38F
SPOKANE FELTS  CLOUDY    54  41  61 NE3       30.38F
FAIRCHILD AFB  CLOUDY    52  36  54 S5        30.37F
COEURDALENE,ID NOT AVBL
DEER PARK      CLOUDY    49  37  63 CALM      30.39S
$$

WAZ029>033-251100-
SOUTHEAST WASHINGTON

CITY           SKY/WX    TMP DP  RH WIND       PRES   REMARKS
PULLMAN        MOCLDY    50  36  58 E3        30.43R
LEWISTON, ID   MOCLDY    52  38  58 E5        30.41S
WALLA WALLA    PTCLDY    54  36  50 E7        30.37S
PENDLETON, OR  CLEAR     48  38  68 SE7       30.37F
$$




USA.gov is the U.S. government's official web portal to all federal, state and local government web resources and services.